TimeCST,TemperatureF,Dew PointF,Humidity,Sea Level PressureIn,VisibilityMPH,Wind Direction,Wind SpeedMPH,Gust SpeedMPH,PrecipitationIn,Events,Conditions,WindDirDegrees,DateUTC
12:56 AM,-6.0,-14.1,68,30.24,-9999.0,Variable,4.6,-,N/A,,Unknown,0,2014-01-08 06:56:00
1:56 AM,-6.0,-14.1,68,30.25,-9999.0,SSW,10.4,-,N/A,,Unknown,200,2014-01-08 07:56:00
2:56 AM,-7.1,-15.0,68,30.27,-9999.0,Variable,4.6,-,N/A,,Unknown,0,2014-01-08 08:56:00
3:56 AM,-8.0,-17.0,65,30.29,-9999.0,Variable,3.5,-,N/A,,Unknown,0,2014-01-08 09:56:00
4:56 AM,-7.1,-13.0,75,30.29,-9999.0,WSW,8.1,16.1,N/A,,Unknown,250,2014-01-08 10:56:00
5:56 AM,-7.1,-15.0,68,30.29,-9999.0,Calm,Calm,-,N/A,,Unknown,0,2014-01-08 11:56:00
6:56 AM,-9.0,-18.0,65,30.26,-9999.0,NNW,24.2,43.7,N/A,,Unknown,330,2014-01-08 12:56:00
7:56 AM,-8.0,-17.0,65,30.27,-9999.0,NNW,19.6,35.7,N/A,,Unknown,330,2014-01-08 13:56:00
8:56 AM,-0.0,-4.0,83,30.34,-9999.0,SSW,16.1,26.5,N/A,,Unknown,210,2014-01-08 14:56:00
9:56 AM,-0.9,-9.0,69,30.37,-9999.0,Variable,5.8,-,N/A,,Unknown,0,2014-01-08 15:56:00
10:56 AM,1.9,-13.0,50,30.38,-9999.0,Variable,3.5,-,N/A,,Unknown,0,2014-01-08 16:56:00
11:56 AM,6.1,-13.0,41,30.37,-9999.0,Variable,5.8,16.1,N/A,,Unknown,0,2014-01-08 17:56:00
12:56 PM,9.0,-9.9,42,30.36,-9999.0,Variable,6.9,21.9,N/A,,Unknown,0,2014-01-08 18:56:00
1:56 PM,10.0,-6.0,48,30.37,-9999.0,West,8.1,16.1,N/A,,Unknown,260,2014-01-08 19:56:00
2:56 PM,8.1,-9.0,46,30.39,-9999.0,Variable,4.6,-,N/A,,Unknown,0,2014-01-08 20:56:00
3:56 PM,6.1,-8.0,53,30.42,-9999.0,Variable,4.6,-,N/A,,Unknown,0,2014-01-08 21:56:00
4:56 PM,3.0,-8.0,60,30.45,-9999.0,WNW,4.6,-,N/A,,Unknown,300,2014-01-08 22:56:00
5:56 PM,-0.0,-11.0,60,30.47,-9999.0,Variable,3.5,-,N/A,,Unknown,0,2014-01-08 23:56:00
6:56 PM,-9.0,-16.1,71,30.49,-9999.0,West,3.5,-,N/A,,Unknown,280,2014-01-09 00:56:00
7:56 PM,1.0,-9.9,60,30.48,-9999.0,Variable,3.5,-,N/A,,Unknown,0,2014-01-09 01:56:00
8:56 PM,-7.1,-15.0,68,30.49,-9999.0,Calm,Calm,-,N/A,,Unknown,0,2014-01-09 02:56:00
9:56 PM,-11.9,-17.0,78,30.49,-9999.0,Calm,Calm,-,N/A,,Unknown,0,2014-01-09 03:56:00
10:56 PM,-14.1,-20.0,75,30.49,-9999.0,NNW,4.6,-,N/A,,Unknown,340,2014-01-09 04:56:00
11:56 PM,-5.1,-15.0,62,30.47,-9999.0,NW,4.6,-,N/A,,Unknown,320,2014-01-09 05:56:00